Regional Weather Roundup
Issued by NWS Wakefield, VA

Home | Current Version | Previous Version | Graphics & Text | Print | Product List | Glossary On
Versions: 1 2 3 4 5 6 7 8 9 10 11 12 13 14 15 16 17 18 19 20 21 22 23 24 25 26 27
000
ASUS41 KAKQ 240015
RWRAKQ

REGIONAL WEATHER ROUNDUP
NATIONAL WEATHER SERVICE WAKEFIELD VA
800 PM EDT SUN APR 23 2017

Note: "fair" indicates few or no clouds below 12,000 feet with no
significant weather and/or obstructions to visibility. * = Denotes
station may not report precipitation (e.g., rain,snow,etc.),
thunder or fog.

VAZ042-051-052>054-056-240100-
NORTHERN VIRGINIA

CITY           SKY/WX    TMP DP  RH WIND       PRES   REMARKS
WASH NATIONAL  CLOUDY    58  45  62 SE6       30.10R
DULLES         CLOUDY    55  43  63 SE5       30.09R
FORT BELVOIR   PTCLDY    55  46  71 CALM      30.09R
QUANTICO       MOCLDY    58  48  69 S3        30.10R
FREDERICKSBRG* CLOUDY    56  48  74 CALM      30.08S
STAFFORD*      CLOUDY    55  50  83 CALM      30.13R
WARRENTON      PTCLDY    55  46  73 CALM      30.08S
CULPEPER*      CLOUDY    54  50  85 CALM      30.09F
MANASSAS*        N/A     57  44  62 E5        30.09S
LEESBURG*      CLOUDY    59  45  58 SE3       30.09S
WINCHESTER     CLOUDY    52  43  71 SE3       30.08S
FRONT ROYAL*   CLOUDY    54  43  66 CALM      30.07S
LURAY*         CLOUDY    54  45  71 E3        30.07S
$$

VAZ048-049-060>072-079>083-240100-
CENTRAL AND SOUTH CENTRAL VIRGINIA

CITY           SKY/WX    TMP DP  RH WIND       PRES   REMARKS
RICHMOND       CLOUDY    54  52  93 N5        30.06S
CHESTERFIELD*  CLOUDY    54  36  50 CALM      30.08R
PETERSBURG*    LGT RAIN  53  50  90 N5        30.07R
HANOVER        CLOUDY    52  49  89 CALM      30.08F
TAPPAHANNOCK*  CLOUDY    55  50  84 CALM      30.08S
QUINTON*       CLOUDY    53  53 100 MISG      30.06F
CHARLOTTSVILLE CLOUDY    54  46  74 CALM      30.07S
GORDONSVILLE*  CLOUDY    53  49  85 CALM      30.08R
ORANGE*        DRIZZLE   54  46  76 CALM      30.08S
LOUISA*        DRIZZLE   55  52  88 CALM      30.07S
BUMPASS*       CLOUDY    52  50  92 CALM      30.07F
FARMVILLE*     DRIZZLE   52  52 100 NE5       30.06R
CREWE*         CLOUDY    51  51 100 CALM      30.06R
FORT PICKETT*  CLOUDY   N/A N/A N/A CALM      30.06S
CHASE CITY*    CLOUDY    50  49  95 NE7       30.02F
CLARKSVILLE*   CLOUDY    50  50 100 NE8       30.02F
SOUTH HILL*    CLOUDY    51  51 100 N6        30.11R
LAWRENCEVILLE* CLOUDY    52  51  96 NE6       30.04F
EMPORIA*       LGT RAIN  52  52 100 N3        30.05S
$$

VAZ088>098-240100-
SOUTHEAST VIRGINIA

CITY           SKY/WX    TMP DP  RH WIND       PRES   REMARKS
NORFOLK        CLOUDY    56  51  84 NE16G23   30.04F
VIRGINIA BEACH CLOUDY    53  50  89 NE9       30.04S
NORFOLK NAVAL  LGT RAIN  56  51  84 E14G28    30.06R
WEST POINT*    CLOUDY    53  51  93 NE3       30.08F
SALUDA*        CLOUDY    54  49  82 E7        30.07S
NEWPORT NEWS   CLOUDY    53  51  93 NE10      30.04F
LANGLEY AFB    CLOUDY    55  51  88 E15       30.04S
FORT EUSTIS    CLOUDY    53  49  86 E6        30.02F
WILLIAMSBURG*  CLOUDY    55  55 100 CALM      30.06F
HR EXEC AP*    CLOUDY    54  48  82 E9        30.05R
FRANKLIN*      CLOUDY    54  52  94 NE6       30.04S
US460-WAKEFLD  LGT RAIN  53  52  96 VRB3      30.04F FOG
$$

VAZ020-022-025-037-045-240100-
WEST CENTRAL AND SOUTHWEST VIRGINIA

CITY           SKY/WX    TMP DP  RH WIND       PRES   REMARKS
STAUNTON*      CLOUDY    51  43  73 SE3       30.08S
WAYNESBORO*    CLOUDY    49  45  86 SE3       30.07S
HOT SPRINGS VA LGT RAIN  41  41 100 E13       30.02F
LYNCHBURG      CLOUDY    49  47  93 NE14      30.04F
DANVILLE       LGT RAIN  50  50 100 NE9       30.01S
SOUTH BOSTON*  CLOUDY    51  49  95 NE5       30.03S
MARTINSVILLE   RAIN      47  46  94 N6        30.05R
ROANOKE        LGT RAIN  48  48 100 S3        30.06S
BLACKSBURG     RAIN      45  43  93 E10       30.05R
DUBLIN*        LGT RAIN  46  43  88 E8        30.03R
MARION*        LGT RAIN  45  44  97 E10G18    30.00F
HILLSVILLE*    LGT RAIN  43  43 100 CALM      29.98S
RICHLANDS*     RAIN      46  46 100 E8        29.94S
WISE*          LGT RAIN  50  50 100 CALM      29.93S
ABINGDON*      RAIN      48  47  96 E9        29.93S
$$

MDZ021>025-VAZ099-100-240100-
SOUTHERN MARYLAND AND THE DELMARVA PENINSULA

CITY           SKY/WX    TMP DP  RH WIND       PRES   REMARKS
PATUXENT RIVER CLOUDY    57  50  77 E10       30.08R
BAY BRIDGE APT CLOUDY    55  46  71 CALM      30.10R
LEONARDTOWN    CLOUDY    54  46  76 CALM      30.10S
DOVER          CLOUDY    51  51 100 SE8       30.10R
GEORGETOWN     CLOUDY    52  45  77 MISG      30.12R
EASTON         CLOUDY    57  45  62 CALM      30.13R
CAMBRIDGE      CLOUDY    55  46  71 E6        30.09S
SALISBURY      CLOUDY    52  47  83 NE6       30.10R
OCEAN CITY     CLOUDY    51  45  79 E7        30.10S
WALLOPS ISLAND LGT RAIN  52  49  89 NE12      30.09R
ACCOMACK*      DRIZZLE   53  49  87 NE6       30.08R
$$

NCZ012>017-030>032-240100-
NORTH CENTRAL AND EASTERN NORTH CAROLINA

CITY           SKY/WX    TMP DP  RH WIND       PRES   REMARKS
ROANOKE RAPIDS RAIN      52  52 100 N5        30.03S
RALEIGH        LGT RAIN  53  51  93 NE13G21   29.99F
ELIZABETH CITY CLOUDY    55  54  96 NE18G25   30.02S
AHOSKIE*       RAIN      53  51  94 NE8       30.02S
EDENTON*       CLOUDY    56  53  89 NE9G21    30.01R
CURRITUCK*     DRIZZLE   55  55 100 NE14G24   30.04R
KILL DEVIL HLS CLOUDY    56  53  90 NE8       30.01R
MANTEO         CLOUDY    56  53  89 NE16G24   30.01R
CAPE HATTERAS  CLOUDY    64  60  87 NE12G21   29.94S FOG
TARBORO*       NOT AVBL
GOLDSBORO      CLOUDY    56  56 100 NE10      29.95S
WASHINGTON     CLOUDY    55  54  95 NE9       29.99R
GREENVILLE     CLOUDY    55  54  94 NE12      30.01R
NEW BERN       CLOUDY    59  57  93 NE13G18   29.97S
WILMINGTON     CLOUDY    63  61  93 NE12      29.91R
$$

VAZ048-240100-
ELSEWHERE

CITY           SKY/WX    TMP DP  RH WIND       PRES   REMARKS
HARRISBURG PA  CLOUDY    59  49  69 CALM      30.06S
BALTIMORE      CLOUDY    56  46  69 CALM      30.09S
ANNAPOLIS      CLOUDY    59  46  62 NE3       30.09S
ANDREWS AFB    CLOUDY    55  45  68 CALM      30.08S
PHILADELPHIA   CLOUDY    57  46  66 S7        30.10R
HENDERSON NC   RAIN      49  48  95 E9        30.03R
GREENSBORO     LGT RAIN  49  49 100 NE17      29.96S FOG
ROCKY MOUNT    LGT RAIN  54  53  97 NE9       30.00S
$$

VAZ100-240100-
MARINE

STATION/POSITION TIME  TEMP    WIND        PRES    WAVE   SWELL
                       AIR SEA DIR/SP/G            HT/PER HT/PER
                 (UTC) (F)     (DEG/KT/KT) (MB)    (FT/S) (FT/S)
CAPE MAY NJ      2348   50 57  110/  4/  5 1019.5R
LEWES DE         2348   51 56  140/  5/  7 1019.7R
15NM E FENWICK I 2350   51 52   60/ 12/ 14 1019.6F   4/10   3/10
OCEAN-CITY-INLET 2348   51 56   90/  6/ 10 1019.4F
WACHAPREAGUE VA  2348   54 61   40/ 15/ 17 1017.8F
THOMAS POINT MD  0000   57 59   50/  3/  3   N/A
GOOSES REEF MD   0000   57 55   30/  6/  8 1019.5    0
COVE POINT MD    2348   57      50/  5/  6 1019.2F
SOLOMONS ISLAND  2348           30/  4/  6   N/A
BISHOPS HEAD MD  2348   56 62   80/ 10/ 12 1019.1R
PINEY POINT MD   2348           90/  3/  3   N/A
POTOMAC MD       0000   57 62  110/ 10/ 14 1017.9    1/ 2
CAMBRIDGE MD     2348   56 63  110/  5/  7 1018.3R
LEWISETTA VA     2348   57 62  120/ 10/ 12 1018.3R
RAPPAHANNOCK LGT 2348           50/ 10/ 11 1018.9R
STINGRAY PT      2350   56     100/ 12/ 14 1018.2R
YORK RVR RNG VA  2348   55      70/ 15/ 18 1017.3F
YORKTOWN VA      2348   56 64   60/ 16/ 19 1017.5R
JAMESTOWN VA     0000   54 68   80/  4/  6   N/A     0
DOMINION TERM VA 2348   56      60/ 10/ 16 1017.5F
KIPTOPEKE VA     2348      61   70/  8/ 14   N/A
CHES BAY BRIDGE  2348   55 61   70/ 23/ 26 1016.7F
CAPE HENRY VA    2348   54      60/ 21/ 23   N/A
WILLOUBY STN VA  2348   56      60/ 19/ 22 1018.2F
S CRANEY ISL VA  2348   56      70/ 13/ 19 1016.9F
CAPE HENRY BUOY  2342      56                N/A     4/12   2/12
1ST LANDING BUOY 0000   56 60              1017.1    3/ 4
CAPE CHARLES BUO 2351      57                N/A     4/ 5   2/12
64NM E OF VA BCH 2350   55 53   40/ 16/ 17 1016.3R   6/ 8   3/ 8
DUCK PIER NC     2348   56 63   20/ 22/ 26 1015.7R
44100 DUCK FRF   2335      55                N/A     6/ 6   2/11
44056 DUCK FRF   2330      60                N/A     6/11   2/11
OREGON INLET NC  2348           20/ 14/ 19 1015.3R
HATTERAS NC      2348   64 68   40/ 15/ 19 1013.6R
DIAMOND SHLS NC  2350   70 76   40/ 19/ 23 1012.7F   8/11   3/11
CAPE LOOKOUT NC  0000   63      30/ 22/ 24 1013.0S
$$




USA.gov is the U.S. government's official web portal to all federal, state and local government web resources and services.